STARLINK-1800, 46700

Orbit data source: Space-Track

STARLINK-1800, 46700 is a payload satellite owned by SpaceX/Seattle (US) in LEO that was launched on Sun, 18 Oct 2020 UTC via an FALCON 9 launch vehicle from the Air Force Eastern Test Range (AFETR). Payload-class satellites include a variety of spacecraft equipped with specific instruments for various scientific and technological missions. These include communications satellites like Starlink; space stations such as the ISS; scientific satellites like the Hubble; Earth observation satellites from companies like Planet Labs, Umbra, and HawkEye 360; GPS; miniature CubeSats for education and research; and military/defense satellites.

Loading next visibility...
Identifier
46700, 2020-073AG
Orbit
LEO
Country
Flag of USUS
Related business
Manufacturer
SpaceX/Seattle
Mission
Partially operational Commercial Communications
Bus & Motor
STARLINK, Unknown motor
Mass
260 kg wet, ~248 kg dry
Launch date (UTC)
2020-10-18 (5 years ago)
Launch vehicle
FALCON 9
Launch site
Air Force Eastern Test Range (AFETR)
Object type
Payload
Rocket body
Debris
Shape & HBR
Box + 1 Pan, 10.1 m
Radar Cross Section
13.562 m², Large (>1 m²)

Expand to show TLE details & history
Last TLE update: 11 hours ago

TLE from 11 hours ago
0 STARLINK-1800
1 46700U 20073AG  25354.14570043  .00071062  00000-0  13911-2 0  9995
2 46700  53.0490 237.8557 0015545 100.9538 259.3218 15.46657126285157
Epoch: 2025-12-20T03:29Z
TLE epoch observation values (Epoch: 2025-12-20T03:29:48.517Z)
Latitude
-0.00002°
Longitude
96.42683°
Altitude
429.383 km
Speed
7.654 km/s
True Right ascension
15h 51m 25s
True Declination
0° 00' 00"
Sunlit
Object was in daylight at epoch
Visualization orbit readout
Latitude
Unknown
Longitude
Unknown
Altitude
Unknown
Speed
Unknown
Apparent Right ascension
Unknown
Apparent Declination
Unknown
Sunlit
N/A
Visualization observer readout
Local Sidereal Time
13:40:40
Azimuth
Unknown
Elevation
Unknown
Doppler factor
Unknown
Orbital elements
Apogee altitude
437.368 km
Perigee altitude
416.211 km
Semi-major axis
6,804.927 km
Eccentricity
0.00155
Inclination
53.049°
RAAN
237.8557°
Arg. of periapsis
100.9538°
True anomaly
259.14682°
Mean anomaly
259.3218°
Eccentric anomaly
259.2343°
Mean motion
3.86641 °/min
Orbital period
93.11 mins
BSTAR
0.0013911
Loading maneuver chart data...
Computing Atmospheric mass density...

Documentation

Showing up to 5 results
|